Regional Weather Roundup
Issued by NWS Northern Indiana

Home | Current Version | Previous Version | Graphics & Text | Print | Product List | Glossary On
Versions: 1 2 3 4 5 6 7 8 9 10 11 12 13 14 15 16 17 18 19 20 21 22 23 24 25 26 27 28 29 30 31 32 33 34 35 36 37 38 39 40 41 42 43 44 45 46 47 48 49 50
000
ASUS43 KIWX 300400
RWRIWX

KIWX WEATHER ROUNDUP
NATIONAL WEATHER SERVICE NORTHERN INDIANA
1200 AM EDT THU JUL 30 2015

NOTE: "FAIR" INDICATES FEW OR NO CLOUDS BELOW 12,000 FEET WITH NO
SIGNIFICANT WEATHER AND/OR OBSTRUCTIONS TO VISIBILITY.

* THESE STATIONS ARE NOT UNDER NWS QUALITY CONTROL. THEY ALSO MAY NOT
  REPORT WEATHER SUCH AS PRECIPITATION OR FOG.

INZ001>027-300500-
NORTHERN INDIANA

CITY           SKY/WX    TMP DP  RH WIND       PRES   REMARKS
KNOX*          CLEAR     70  55  60 W9        30.01S
SOUTH BEND     CLEAR     69  61  75 W8        30.01S
GOSHEN         CLEAR     65  58  78 CALM      30.00S
MONTICELLO*    CLEAR     67  61  81 W3        30.03R
WARSAW*        CLEAR     66  59  77 W3        30.01S
ANGOLA*        CLEAR     64  63  94 CALM      30.00S
FORT WAYNE     PTCLDY    66  62  87 W5        30.01R

$$
INZ028>050-300500-
CENTRAL INDIANA

CITY           SKY/WX    TMP DP  RH WIND       PRES   REMARKS
LAFAYETTE      PTCLDY    65  63  93 CALM      30.04R
KOKOMO*        CLEAR     70  57  64 W6        30.03S
MUNCIE*        CLOUDY    75  65  70 NW8       30.03R
INDIANAPOLIS   CLOUDY    73  60  63 NW6       30.04R

$$
MIZ043>046-050>051-056>058-064>065-071>073-077>080-300500-
SOUTHWEST LOWER MICHIGAN

CITY           SKY/WX    TMP DP  RH WIND       PRES   REMARKS
BATTLE CREEK   CLEAR     70  56  61 W9        29.98S
BENTON HARBOR  CLEAR     74  61  63 W13       29.98F
COLDWATER*     CLEAR     64  58  81 W3        29.99S
HILLSDALE*     CLEAR     67  58  72 W7        29.99S
HOLLAND        CLEAR     75  60  59 W10       29.96F
GRAND RAPIDS   CLEAR     70  58  65 W9        29.95S
KALAMAZOO      CLEAR     70  56  61 W7        29.98S
STURGIS*       CLEAR     68  57  68 W3        29.99S
THREE RIVERS*  FAIR      67  56  68 W5        29.99S

$$
OHZ001>008-015>018-024>025-300500-
NORTHWEST OHIO

CITY           SKY/WX    TMP DP  RH WIND       PRES   REMARKS
DEFIANCE       CLEAR     69  60  73 SW3       29.98S
FINDLAY        CLEAR     73  66  78 NW8       29.97R
TOLEDO EXPRESS CLEAR     69  63  81 W5        29.96S
TOLEDO METCALF CLEAR     72  59  63 W8        29.97R
LIMA           PTCLDY    73  58  59 NW9       29.99R

$$
AND FOR LAKE MICHIGAN COASTAL AND OPEN LAKE BUOY OBSERVATIONS

STATION/POSITION TEMP    WIND        PRES    VSBY  WAVE
                 AIR SEA DIR/SP/G                  HT/PER
                 (F)     (DEG/KT/KT) (MB)    (MI)  (FT/S)
CALUMET HARBOR    77                   N/A
MICHIGAN CITY     76     250/ 14/ 15   N/A
BURNS HARBOR      76     260/ 12/ 13 1016.9R
SAINT JOSEPH      76     230/  9/ 12 1016.6R
4 MI NW BRIDGMAN  77 75  300/ 14/ 16   N/A           3/ 3
MICHIGAN CITY     77 74  290/ 10/ 14   N/A           2/ 3

$$
&&


USA.gov is the U.S. government's official web portal to all federal, state and local government web resources and services.